{"data":{"norad_id":66401,"intl_designator":"2025-257X","name":"STARLINK-35668","alt_names":[],"object_type":"PAYLOAD","status":"ACTIVE","operator":null,"country":"US","launch_date":"2025-11-09","launch_site_code":"AFETR","launch_vehicle":null,"mission":null,"orbit_class":"UNKNOWN","rcs_meters":null,"size_class":null,"mass_kg":null,"dimensions":null,"purposes":["comms"],"wikipedia_slug":null,"has_3d_model":false,"image_url":null,"decayed_at":null,"tle_current":{"epoch":"2026-09-20T12:28:50.478816Z","epoch_age_seconds":91683,"freshness":"FRESH","line1":"1 66401U 25257X   26263.52002869  .00027831  00000+0  83168-3 0  9998","line2":"2 66401  53.1589  27.7440 0000840  99.2673 260.8425 15.34403205 49627","mean_motion":15.34403205,"eccentricity":8.4e-5,"inclination_deg":53.1589,"raan_deg":27.744,"arg_perigee_deg":99.2673,"mean_anomaly_deg":260.8425,"bstar":0.00083168,"rev_number":4962,"period_min":93.847562055894,"perigee_km":462.11908450826,"apogee_km":463.26834406826,"semimajor_km":6840.8307142883,"source":"CELESTRAK","updated_at":"2026-09-21T09:00:35.889531Z"}}}